AL7BX-WX Weather Reports


Display with metric or nautical units.
time (UTC)temp
F
wind
direction
speed
MPH
gust
MPH
rain 1hr
in
rain 24hr
in
rain mn
in
humidity
%
barometer
mb
20260507114503 35 0 0.0 0.0 0.00 0.00 0.00 57
20260507113603 35 297 0.0 1.0 0.00 0.00 0.00 56
20260507112703 36 297 1.0 3.0 0.00 0.00 0.00 55
20260507111803 36 297 0.0 2.0 0.00 0.00 0.00 55
20260507110903 36 0 0.0 0.0 0.00 0.00 0.00 53
20260507110003 37 0 0.0 0.0 0.00 0.00 0.00 52
20260507105403 37 297 0.0 2.0 0.00 0.00 0.00 52
20260507104503 38 297 1.0 3.0 0.00 0.00 0.00 50
20260507103813 38 296 2.0 3.0 0.00 0.00 0.00 50
20260507102703 37 296 2.0 3.0 0.00 0.00 0.00 49
20260507101803 37 296 0.0 2.0 0.00 0.00 0.00 49
20260507100903 38 296 0.0 1.0 0.00 0.00 0.00 48
20260507100003 37 296 0.0 1.0 0.00 0.00 0.00 49
20260507095403 37 296 0.0 1.0 0.00 0.00 0.00 49
20260507094504 37 296 0.0 3.0 0.00 0.00 0.00 51
20260507093603 36 297 0.0 2.0 0.00 0.00 0.00 55
20260507092914 36 297 0.0 1.0 0.00 0.00 0.00 54
20260507091803 37 359 1.0 4.0 0.00 0.00 0.00 48
20260507090903 38 36 0.0 1.0 0.00 0.00 0.00 51
20260507090214 39 36 0.0 2.0 0.00 0.00 0.00 51
20260507085403 39 36 1.0 3.0 0.00 0.00 0.00 49
20260507084503 38 36 0.0 1.0 0.00 0.00 0.00 49
20260507083603 38 52 2.0 4.0 0.00 0.00 0.00 52
20260507082703 38 59 2.0 3.0 0.00 0.00 0.00 51
20260507081803 39 59 1.0 2.0 0.00 0.00 0.00 47
20260507080903 39 59 1.0 3.0 0.00 0.00 0.00 48
20260507080003 39 59 1.0 3.0 0.00 0.00 0.00 47
20260507075403 39 61 1.0 3.0 0.00 0.00 0.00 46
20260507074503 40 55 2.0 4.0 0.00 0.00 0.00 45
20260507073603 41 34 1.0 4.0 0.00 0.00 0.00 44
20260507072703 43 2 4.0 7.0 0.00 0.00 0.00 41
20260507072012 43 354 5.0 7.0 0.00 0.00 0.00 42
20260507070903 44 341 4.0 7.0 0.00 0.00 0.00 40
20260507070213 44 342 4.0 6.0 0.00 0.00 0.00 42
20260507065403 43 27 3.0 5.0 0.00 0.00 0.00 43
20260507064503 41 52 2.0 4.0 0.00 0.00 0.00 46
20260507063813 41 67 1.0 4.0 0.00 0.00 0.00 46
20260507062703 42 91 1.0 2.0 0.00 0.00 0.00 44
20260507061803 44 90 0.0 3.0 0.00 0.00 0.00 44
20260507060903 45 90 0.0 3.0 0.00 0.00 0.00 39
20260507060005 48 90 1.0 4.0 0.00 0.00 0.00 40
20260507055403 49 90 1.0 4.0 0.00 0.00 0.00 37
20260507054503 49 89 2.0 6.0 0.00 0.00 0.00 34
20260507053813 46 87 2.0 7.0 0.00 0.00 0.00 37
20260507052703 44 39 1.0 3.0 0.00 0.00 0.00 41
20260507051803 45 47 1.0 3.0 0.00 0.00 0.00 40
20260507050904 46 0 0.0 0.0 0.00 0.00 0.00 37
20260507050003 47 47 0.0 2.0 0.00 0.00 0.00 36
20260507045403 47 46 0.0 1.0 0.00 0.00 0.00 35
20260507044503 48 46 0.0 1.0 0.00 0.00 0.00 35
20260507043603 49 47 0.0 3.0 0.00 0.00 0.00 35
20260507042703 49 47 0.0 3.0 0.00 0.00 0.00 35
20260507041803 49 33 1.0 3.0 0.00 0.00 0.00 35
20260507040903 49 38 1.0 3.0 0.00 0.00 0.00 34
20260507040004 50 38 1.0 4.0 0.00 0.00 0.00 33
20260507035403 50 41 1.0 4.0 0.00 0.00 0.00 33
20260507034503 49 41 1.0 4.0 0.00 0.00 0.00 33
20260507033603 49 27 0.0 3.0 0.00 0.00 0.00 33
20260507032703 50 0 0.0 0.0 0.00 0.00 0.00 32
20260507031803 52 0 0.0 0.0 0.00 0.00 0.00 32
20260507030903 54 10 3.0 10.0 0.00 0.00 0.00 29
20260507030003 55 360 4.0 11.0 0.00 0.00 0.00 28
20260507025403 55 356 4.0 10.0 0.00 0.00 0.00 29
20260507024503 56 348 6.0 11.0 0.00 0.00 0.00 28
20260507023603 56 352 5.0 12.0 0.00 0.00 0.00 28
20260507022703 57 352 6.0 12.0 0.00 0.00 0.00 27
20260507021803 58 348 6.0 13.0 0.00 0.00 0.00 26
20260507020903 58 349 6.0 14.0 0.00 0.00 0.00 26
20260507020003 59 351 6.0 13.0 0.00 0.00 0.00 26
20260507015403 59 354 7.0 13.0 0.00 0.00 0.00 25
20260507014503 60 357 8.0 16.0 0.00 0.00 0.00 25
20260507013603 60 360 8.0 14.0 0.00 0.00 0.00 26
20260507012703 61 353 8.0 14.0 0.00 0.00 0.00 27
20260507011803 61 356 8.0 17.0 0.00 0.00 0.00 28
20260507010903 62 2 10.0 19.0 0.00 0.00 0.00 26
20260507010003 62 358 9.0 16.0 0.00 0.00 0.00 26
20260507005403 62 354 8.0 16.0 0.00 0.00 0.00 26
20260507004503 63 352 9.0 17.0 0.00 0.00 0.00 27
20260507003603 63 352 9.0 15.0 0.00 0.00 0.00 26
20260507002703 63 350 10.0 18.0 0.00 0.00 0.00 27
20260507001803 63 359 8.0 14.0 0.00 0.00 0.00 26
20260507000905 63 354 10.0 19.0 0.00 0.00 0.00 28
20260507000003 63 355 10.0 18.0 0.00 0.00 0.00 26
20260506235403 64 340 11.0 18.0 0.00 0.00 0.00 27
20260506234503 64 345 11.0 24.0 0.00 0.00 0.00 28
20260506233603 64 335 10.0 24.0 0.00 0.00 0.00 28
20260506232914 63 351 10.0 17.0 0.00 0.00 0.00 27
20260506231803 64 350 10.0 18.0 0.00 0.00 0.00 25
20260506230903 63 353 11.0 18.0 0.00 0.00 0.00 26
20260506230003 64 336 13.0 19.0 0.00 0.00 0.00 28
20260506225403 64 338 12.0 21.0 0.00 0.00 0.00 29
20260506224503 63 355 12.0 21.0 0.00 0.00 0.00 30
20260506223603 64 358 11.0 19.0 0.00 0.00 0.00 29
20260506222703 64 345 12.0 21.0 0.00 0.00 0.00 28
20260506221803 64 343 11.0 21.0 0.00 0.00 0.00 31
20260506220903 64 351 12.0 21.0 0.00 0.00 0.00 30
20260506220003 64 332 14.0 22.0 0.00 0.00 0.00 30
20260506215403 64 340 12.0 22.0 0.00 0.00 0.00 33
20260506214503 63 10 10.0 24.0 0.00 0.00 0.00 31
20260506213814 64 355 10.0 19.0 0.00 0.00 0.00 32
20260506212703 63 342 11.0 20.0 0.00 0.00 0.00 37
20260506212013 63 352 10.0 22.0 0.00 0.00 0.00 35
20260506211114 63 343 11.0 21.0 0.00 0.00 0.00 34
20260506210213 62 3 11.0 21.0 0.00 0.00 0.00 34
20260506205613 62 357 12.0 22.0 0.00 0.00 0.00 33
20260506204503 63 341 12.0 21.0 0.00 0.00 0.00 37
20260506203603 62 353 12.0 25.0 0.00 0.00 0.00 35
20260506202703 62 338 14.0 23.0 0.00 0.00 0.00 36
20260506201803 62 335 13.0 23.0 0.00 0.00 0.00 40
20260506200903 62 340 13.0 23.0 0.00 0.00 0.00 40
20260506200004 61 345 12.0 22.0 0.00 0.00 0.00 39
20260506195404 61 338 13.0 22.0 0.00 0.00 0.00 38
20260506194503 61 331 14.0 26.0 0.00 0.00 0.00 40
20260506193603 61 347 12.0 21.0 0.00 0.00 0.00 41
20260506192912 61 346 12.0 22.0 0.00 0.00 0.00 45
20260506191803 61 341 13.0 21.0 0.00 0.00 0.00 43
20260506190903 60 349 12.0 21.0 0.00 0.00 0.00 44
20260506190004 61 345 10.0 21.0 0.00 0.00 0.00 45
20260506185403 61 340 9.0 19.0 0.00 0.00 0.00 43
20260506184503 61 18 8.0 18.0 0.00 0.00 0.00 46
20260506183603 60 343 12.0 19.0 0.00 0.00 0.00 46
20260506182704 60 343 9.0 19.0 0.00 0.00 0.00 47
20260506181803 60 353 10.0 20.0 0.00 0.00 0.00 48
20260506181113 60 359 8.0 17.0 0.00 0.00 0.00 48
20260506180214 60 357 9.0 18.0 0.00 0.00 0.00 49
20260506175403 59 353 11.0 20.0 0.00 0.00 0.00 50
20260506174503 59 2 9.0 19.0 0.00 0.00 0.00 49
20260506173603 59 360 9.0 17.0 0.00 0.00 0.00 47
20260506172703 59 345 6.0 14.0 0.00 0.00 0.00 47
20260506171803 59 333 8.0 15.0 0.00 0.00 0.00 52
20260506170903 58 348 8.0 13.0 0.00 0.00 0.00 50
20260506170214 58 348 7.0 13.0 0.00 0.00 0.00 50
20260506165403 58 354 8.0 17.0 0.00 0.00 0.00 48
20260506164503 58 12 7.0 14.0 0.00 0.00 0.00 47
20260506163603 58 356 7.0 18.0 0.00 0.00 0.00 48
20260506162913 58 349 5.0 12.0 0.00 0.00 0.00 47
20260506162013 57 15 4.0 9.0 0.00 0.00 0.00 48
20260506160903 57 327 3.0 7.0 0.00 0.00 0.00 48
20260506160003 56 319 1.0 5.0 0.00 0.00 0.00 47
20260506155403 55 320 1.0 3.0 0.00 0.00 0.00 48
20260506154503 54 319 1.0 3.0 0.00 0.00 0.00 49
20260506153603 53 319 2.0 4.0 0.00 0.00 0.00 48
20260506152703 53 345 2.0 5.0 0.00 0.00 0.00 48
20260506151803 53 356 2.0 4.0 0.00 0.00 0.00 49
20260506150903 52 355 2.0 5.0 0.00 0.00 0.00 51
20260506150003 52 315 3.0 5.0 0.00 0.00 0.00 52
20260506145403 52 312 3.0 5.0 0.00 0.00 0.00 51
20260506144503 50 312 2.0 4.0 0.00 0.00 0.00 58
20260506143813 49 311 2.0 4.0 0.00 0.00 0.00 58
20260506142703 48 311 2.0 4.0 0.00 0.00 0.00 57
20260506141803 49 311 3.0 4.0 0.00 0.00 0.00 57
20260506140903 49 274 2.0 6.0 0.00 0.00 0.00 58
20260506140213 48 242 0.0 2.0 0.00 0.00 0.00 58
20260506135403 46 0 0.0 0.0 0.00 0.00 0.00 58
20260506134503 46 241 0.0 1.0 0.00 0.00 0.00 57
20260506133603 46 0 0.0 0.0 0.00 0.00 0.00 57
20260506132703 46 239 1.0 4.0 0.00 0.00 0.00 57
20260506132014 46 178 0.0 1.0 0.00 0.00 0.00 54
20260506130903 46 178 0.0 1.0 0.00 0.00 0.00 54
20260506130214 46 0 0.0 0.0 0.00 0.00 0.00 53
20260506125403 46 178 0.0 1.0 0.00 0.00 0.00 52
20260506124503 46 178 0.0 2.0 0.00 0.00 0.00 51
20260506123603 46 178 0.0 2.0 0.00 0.00 0.00 51
20260506122703 47 178 2.0 3.0 0.00 0.00 0.00 50
20260506122013 47 184 2.0 4.0 0.00 0.00 0.00 50
20260506120903 47 235 2.0 4.0 0.00 0.00 0.00 50
20260506120003 47 298 0.0 3.0 0.00 0.00 0.00 51
20260506115614 47 299 0.0 1.0 0.00 0.00 0.00 52